SL-14 R/B, 20741

Orbit data source: Space-Track

SL-14 R/B, 20741 is space debris in LEO originally from a launch on Wed, 08 Aug 1990 UTC launched from the Plesetsk Missile And Space Complex (PKMTR). Debris objects in space refer to the collection of defunct objects orbiting the Earth. Examples of debris include non-operational satellites, rocket bodies, and fragments generated from explosions, collisions, or faulty payload assembly.

Loading next visibility...
Identifier
20741, 1990-070G
Orbit
LEO
Country
Flag of CISCIS
Related business
Manufacturer
Yuzhnoe
Mission
Spacecraft
Bus & Motor
S5M, Unknown motor
Mass
1,600 kg wet, 1,600 kg dry
Launch date (UTC)
1990-08-08 (35 years ago)
Launch vehicle
Unknown
Launch site
Plesetsk Missile And Space Complex (PKMTR)
Object type
Payload
Rocket body
Debris
Shape & HBR
Cyl, 1.4 m
Radar Cross Section
7.351 m², Large (>1 m²)

Expand to show TLE details & history
Last TLE update: 7 hours ago

TLE from 7 hours ago
0 SL-14 R/B
1 20741U 90070G   26036.69034030  .00000029  00000-0  11323-3 0  9996
2 20741  82.5803 153.1608 0035522 353.3395 130.7849 12.55716589627022
Epoch: 2026-02-05T16:34Z
TLE epoch observation values (Epoch: 2026-02-05T16:34:05.401Z)
Latitude
54.96575°
Longitude
-61.8522°
Altitude
1,467.908 km
Speed
7.126 km/s
True Right ascension
21h 30m 02s
True Declination
54° 49' 07"
Sunlit
Object was in daylight at epoch
Visualization orbit readout
Latitude
Unknown
Longitude
Unknown
Altitude
Unknown
Speed
Unknown
Apparent Right ascension
Unknown
Apparent Declination
Unknown
Sunlit
N/A
Visualization observer readout
Local Sidereal Time
01:17:16
Azimuth
Unknown
Elevation
Unknown
Doppler factor
Unknown
Orbital elements
Apogee altitude
1,465.769 km
Perigee altitude
1,410.24 km
Semi-major axis
7,816.142 km
Eccentricity
0.00355
Inclination
82.5803°
RAAN
153.1608°
Arg. of periapsis
353.3395°
True anomaly
131.09221°
Mean anomaly
130.7849°
Eccentric anomaly
130.93865°
Mean motion
3.1409 °/min
Orbital period
114.62 mins
BSTAR
0.00011323
Loading maneuver chart data...
Computing Atmospheric mass density...
Loading historical data...
Loading historical data...
Loading historical data...
Loading historical data...
Loading historical data...
Loading historical data...
Loading historical data...

Documentation

Showing up to 5 results
|